Home   Weather   Słupsk   Past weeks

Flag for Poland Past Weather in Słupsk, Poland — Yesterday and Last 2 Weeks

Now
65 °F

Partly sunny.


Feels Like: 65 °F
Forecast: 57 / 71 °F
Wind: 8 mph from West

Location: Leba

Current Time: Aug 30, 2016 at 5:07:46 PM

Latest Report: Aug 30, 2016 at 2:00 PM


Visibility: 13 mi

Pressure: 30.20 "Hg

Humidity: 70%

Dew Point: 55 °F

Location of SłupskLocation

Past Weather in Słupsk — Graph

°F

Słupsk Temperature Yesterday

Maximum temperature yesterday: 71 °F (at 1:00 AM)
Minimum temperature yesterday: 63 °F (at 8:00 PM)
Average temperature yesterday: 66 °F

High & Low Weather Summary for the Past Weeks

 TemperatureHumidityPressure
High83 °F (Aug 28, 5:00 PM)98% (Aug 20, 7:00 AM)30.36 "Hg (Aug 20, 7:00 AM)
Low53 °F (Aug 20, 6:00 AM)41% (Aug 26, 2:00 PM)29.71 "Hg (Aug 18, 3:00 PM)
Average64 °F81%30.04 "Hg
* Reported Aug 15 2:00 PM — Aug 30 2:00 PM, Słupsk, Weather by CustomWeather, © 2016

Note: Actual official high and low records may vary slightly from our data, if they occured in-between our weather recording intervals... More about our weather records

Advertising

Słupsk Weather History for the Previous 24 Hours

Scroll right to see more
 ConditionsComfort  
Time TempWeatherWind HumidityBarometerVisibility
2:00 PM
Tue, Aug 30
65 °FPartly sunny.8 mph70%30.20 "Hg12 mi
1:00 PM65 °FOvercast.8 mph70%30.19 "Hg12 mi
12:00 PM63 °FPartly sunny.7 mph74%30.17 "Hg12 mi
11:00 AM63 °FPartly sunny.8 mph75%30.15 "Hg12 mi
10:00 AM62 °FSprinkles. Partly sunny.9 mph78%30.13 "Hg12 mi
8:00 AM62 °FPartly sunny.9 mph75%30.08 "Hg12 mi
7:00 AM61 °FOvercast.8 mph77%30.06 "Hg12 mi
6:00 AMN/APassing clouds.23 mphN/AN/A2 mi
5:00 AM62 °FPassing clouds.8 mph75%30.03 "Hg12 mi
4:00 AM62 °FPassing clouds.22 mph75%30.02 "Hg14 mi
3:00 AM62 °FPassing clouds.9 mph72%30.01 "Hg12 mi
2:00 AM62 °FPassing clouds.8 mph70%30.01 "Hg12 mi
1:00 AM63 °FPassing clouds.8 mph67%30.00 "Hg12 mi
12:00 AM63 °FPassing clouds.9 mph67%29.98 "Hg12 mi
11:00 PM
Mon, Aug 29
63 °FPassing clouds.8 mph70%29.97 "Hg12 mi
10:00 PM64 °FPassing clouds.10 mph72%29.95 "Hg12 mi
9:00 PM63 °FPassing clouds.12 mph73%29.94 "Hg12 mi
8:00 PM63 °FPassing clouds.12 mph74%29.92 "Hg12 mi
7:00 PM64 °FOvercast.12 mph76%29.90 "Hg12 mi
6:00 PM65 °FOvercast.15 mph76%29.90 "Hg12 mi
5:00 PM67 °FOvercast.13 mph77%29.88 "Hg12 mi
Weather by CustomWeather, © 2016

See weather overviewHow to use our weather pages